Location: Alpha Ridge Park
(39.3209°N, 76.9128°W)
Time: 18:23:11
(UTC-04:00)

OTV 5 (USA 277) - Visible Passes

Search period start: 18 April 2019 00:00
Search period end: 28 April 2019 00:00
Orbit: 310 x 325 km, 54.5° (Epoch: 16 April)

Date Brightness Start Highest point End Pass type
(mag) Time Alt. Az. Time Alt. Az. Time Alt. Az.
18 Apr ? 05:27:24 10° N 05:29:02 15° NNE 05:30:39 10° ENE visible
19 Apr ? 05:41:31 10° NNW 05:43:58 32° NE 05:46:25 10° ESE visible
20 Apr ? 04:23:22 10° N 04:24:05 11° NNE 04:24:50 10° NE visible
20 Apr ? 05:56:06 10° NW 05:58:45 78° SW 06:01:24 10° SE visible
21 Apr ? 04:36:59 10° NNW 04:39:07 21° NE 04:41:15 10° E visible
22 Apr ? 04:51:41 13° NW 04:53:59 56° NE 04:56:36 10° ESE visible
22 Apr ? 21:10:36 10° SSW 21:12:33 33° S 21:12:33 33° S visible
23 Apr ? 05:07:59 31° W 05:08:41 39° SW 05:11:12 10° SSE visible
23 Apr ? 21:25:13 10° WSW 21:27:54 55° NW 21:29:39 19° NNE visible
24 Apr ? 21:40:35 10° W 21:42:46 21° NW 21:44:58 10° NNE visible
25 Apr ? 20:20:23 10° SW 20:23:06 80° SE 20:25:50 10° NE visible
25 Apr ? 21:56:56 10° NW 21:57:47 11° NNW 21:58:38 10° N visible
26 Apr ? 20:35:24 10° WSW 20:37:54 32° NW 20:40:25 10° NNE visible
27 Apr ? 20:51:09 10° WNW 20:52:51 15° NNW 20:54:34 10° N visible
